Temp
51 49 45 49 55 58 57 57 56 62 69 66 65 66 71 76 75 75 77 79 80 81 85 87 84 83 83 82 81 82 81 78 77 76 74 75 74 74 74 74 73 71 71 70
40 40 53 56 58 55 56 55 56 64 68 62 60 59 69 73 74 74 76 77 78 80 83 85 85 81 80 80 80 81 81 80 78 78 77 76 76 73 73 71 73 74 72 71
33 45 56 54 54 53 55 53 56 57 56 53 57 53 59 70 74 76 78 79 80 78 79 82 83 78 77 78 78 80 80 80 78 78 77 74 69 68 67 67 70 73 72 71
39 48 52 51 50 56 51 61 59 58 51 37 55 40 56 63 66 71 73 75 77 78 80 82 80 77 76 77 79 79 79 79 80 77 76 69 66 65 67 67 69 71 70 70
37 42 50 50 52 59 55 63 59 57 50 44 47 43 51 60 58 63 71 75 76 77 77 79 78 79 79 78 76 77 77 77 77 77 74 69 68 69 69 67 66 67 69 69
42 53 54 57 62 62 64 57 55 53 48 35 44 44 47 55 59 63 71 75 75 75 75 76 78 79 78 78 74 75 75 76 76 75 74 71 67 68 67 67 65 66 66 67
46 50 56 62 56 61 57 50 36 31 33 32 49 44 49 63 68 69 71 73 73 73 73 72 75 76 74 73 73 73 73 73 74 73 72 71 69 68 68 69 68 67 65 64
38 30 46 58 57 53 51 49 36 28 29 36 49 42 51 65 71 74 72 72 72 72 72 73 74 72 70 70 69 68 68 69 71 70 71 70 69 68 69 70 71 67 66 65
37 40 51 55 62 59 50 44 53 43 43 38 46 51 63 67 66 69 68 69 68 71 72 71 72 69 67 66 66 64 65 66 68 67 69 68 66 66 68 70 69 69 68 68
43 35 50 49 61 60 55 57 41 44 32 30 36 45 46 57 60 64 63 67 69 71 70 70 68 66 67 66 64 62 62 63 63 63 65 67 66 67 67 68 67 68 68 67
47 42 44 55 46 48 50 48 50 49 46 36 33 36 55 58 60 53 65 66 62 64 64 65 66 66 65 65 63 61 59 57 56 57 60 66 65 66 66 66 66 67 67 66
46 40 35 46 59 62 58 52 52 41 40 45 42 41 57 58 64 65 58 62 60 61 61 62 62 61 61 61 60 57 55 54 52 52 62 64 63 64 65 64 65 65 66 66
44 37 30 38 48 57 52 55 55 53 51 41 37 42 54 56 51 59 56 57 58 57 57 58 58 57 56 56 56 54 52 50 49 51 57 60 60 62 61 62 64 65 65 65
48 41 33 28 32 41 45 53 55 52 42 43 43 45 52 49 50 52 52 54 53 53 53 53 53 52 52 52 51 50 48 48 47 49 56 58 58 60 61 61 63 64 64 65
47 36 38 42 45 36 39 42 50 50 50 44 42 44 47 46 44 49 52 52 50 49 50 49 48 47 47 47 46 45 45 45 45 45 51 57 59 60 61 60 62 63 62 63
48 35 40 41 49 46 38 42 43 42 46 49 48 47 47 49 51 48 47 46 45 46 46 45 44 43 42 42 41 42 42 42 43 45 49 58 58 58 58 59 60 61 60 61
42 37 37 36 46 46 40 48 50 52 55 52 43 45 49 46 44 42 43 44 42 42 43 40 39 39 39 38 39 39 40 42 41 46 54 57 57 57 58 59 59 59 59 60
42 40 40 35 40 29 43 49 49 49 49 50 49 48 47 42 41 42 43 42 40 40 39 38 38 37 37 37 37 38 40 40 38 39 43 51 56 56 58 58 58 58 59 58
50 43 35 32 33 42 38 42 41 39 38 45 46 47 44 43 42 37 43 44 40 39 38 37 37 36 35 35 36 37 37 37 36 35 37 40 44 55 56 57 57 58 58 57
49 48 39 36 30 27 35 46 52 50 31 35 44 46 46 45 37 34 42 42 40 38 36 35 36 35 34 33 35 34 33 32 32 33 34 37 39 43 47 49 51 51 52 46
38 38 34 35 33 33 39 46 51 34 30 38 40 42 41 37 37 40 42 40 39 36 35 36 37 33 33 33 33 33 32 31 32 32 33 35 35 37 39 40 42 42 39 36
33 31 29 32 32 27 39 45 34 35 39 39 40 42 40 41 41 41 40 38 35 33 33 33 32 32 32 33 32 32 31 32 32 32 32 32 33 33 36 36 36 37 35 33
32 38 33 32 30 35 37 36 39 42 42 44 44 45 44 42 41 40 37 36 33 32 31 32 30 30 31 31 31 30 32 32 32 31 30 30 31 32 32 32 33 32 32 31
42 46 36 36 33 35 35 37 37 39 40 45 46 46 45 42 42 41 39 37 33 32 31 31 30 29 28 30 31 31 33 33 32 31 30 29 29 29 31 31 31 30 30 29
41 42 34 32 35 37 34 35 35 37 40 42 44 43 43 44 42 41 38 38 37 34 33 31 29 29 28 29 30 31 32 34 32 31 32 30 29 28 28 29 29 29 29 29
38 31 31 28 31 33 31 34 35 33 33 39 41 41 41 41 40 40 37 37 36 34 34 32 30 30 29 29 30 31 32 32 32 31 31 31 30 29 27 27 27 31 31 32
MSLP
1006.88 1005.37 1002.83 1001.98 1000.23 998.62 999.11 998.61 997.47 997.07 997.12 996.71 996.62 996.27 996.40 996.26 996.50 996.13 995.69 996.19 996.27 996.52 996.86 997.17 997.71 998.49 999.06 999.63 1000.27 1000.93 1001.54 1002.27 1003.13 1004.02 1004.93 1005.50 1005.68 1006.33 1006.70 1007.13 1007.61 1008.27 1009.06 1009.56
1006.92 1003.62 1002.49 1002.18 1001.06 1000.72 999.26 998.39 997.40 996.75 996.80 997.42 997.44 997.38 995.97 995.71 995.75 996.02 995.65 995.79 996.15 996.34 996.71 997.14 997.73 998.48 999.26 999.91 1000.52 1001.09 1001.60 1002.22 1002.89 1003.62 1004.11 1004.68 1005.24 1005.70 1006.31 1006.78 1007.23 1007.60 1008.26 1008.83
1006.40 1003.39 1002.03 1001.67 1000.65 999.41 998.62 998.15 997.63 997.36 998.53 1000.47 999.64 999.08 997.99 996.34 995.74 995.44 995.27 995.45 995.78 996.22 996.82 997.14 997.66 998.52 999.48 1000.25 1000.83 1001.45 1001.81 1002.15 1002.42 1002.83 1003.47 1004.30 1005.20 1005.99 1006.53 1006.78 1007.05 1007.15 1007.60 1008.07
1004.78 1002.96 1001.27 1000.59 999.80 998.57 997.32 997.68 997.99 998.25 999.14 1001.93 1001.25 999.78 998.50 997.21 996.31 995.84 995.47 995.28 995.39 995.84 996.69 996.99 997.51 998.62 999.64 1000.50 1000.92 1001.60 1002.11 1002.25 1002.03 1002.18 1002.78 1003.69 1004.57 1005.46 1005.82 1006.31 1006.81 1007.03 1007.24 1007.86
1004.08 1002.06 999.92 998.71 998.24 997.64 996.80 997.24 997.79 998.84 1000.49 1002.13 1001.97 1001.13 998.18 998.30 996.76 996.08 995.11 994.85 995.25 995.89 996.83 997.22 997.91 998.80 999.75 1000.34 1001.12 1001.85 1002.40 1002.58 1002.23 1002.09 1002.34 1003.25 1004.01 1004.57 1005.29 1005.98 1006.43 1006.92 1007.00 1007.47
1003.57 1001.54 999.64 997.26 996.34 996.64 996.83 997.75 998.86 1000.39 1001.53 1001.90 1000.92 1000.90 997.77 996.79 995.78 995.52 994.65 994.82 995.17 995.98 996.87 997.61 998.25 999.31 1000.14 1000.63 1001.32 1002.01 1002.46 1002.38 1002.16 1002.18 1002.28 1002.62 1003.46 1004.10 1004.82 1005.18 1005.63 1006.13 1006.58 1007.00
1001.37 999.78 998.27 996.32 995.74 996.19 996.81 998.41 1000.15 1001.52 1001.63 1000.42 1000.46 1000.24 997.22 995.09 994.20 994.35 994.34 994.59 995.82 996.77 997.79 998.54 999.05 1000.03 1001.02 1001.35 1001.74 1002.11 1002.45 1002.53 1002.29 1002.06 1002.24 1002.35 1002.87 1003.71 1004.19 1004.43 1004.60 1005.08 1005.85 1006.49
1001.78 1001.26 999.16 996.70 995.71 995.87 997.51 998.67 999.63 1000.07 1000.53 999.97 999.60 997.85 995.90 995.43 994.16 994.09 994.55 995.54 996.63 997.64 998.79 999.60 1000.10 1000.94 1002.00 1002.43 1002.97 1003.25 1003.36 1003.23 1002.69 1002.47 1002.00 1002.03 1002.59 1003.27 1003.58 1003.76 1003.53 1004.12 1004.87 1005.75
1002.46 1000.35 999.21 997.21 996.08 996.72 997.90 998.65 999.32 999.81 1000.01 999.43 998.05 997.11 994.78 994.64 994.70 994.69 995.68 996.58 997.72 998.27 999.25 1000.08 1000.85 1001.95 1002.97 1003.61 1004.08 1004.40 1004.14 1003.77 1003.14 1002.84 1002.24 1001.62 1001.97 1002.75 1003.21 1003.10 1003.11 1003.31 1004.04 1005.07
1003.63 1001.99 999.52 998.34 996.85 997.23 997.57 998.64 999.35 999.63 999.27 998.84 998.42 997.11 996.36 995.02 995.43 996.50 998.19 997.18 998.22 999.06 999.86 1000.70 1001.69 1002.64 1003.55 1003.98 1004.43 1004.61 1004.62 1004.15 1003.63 1003.36 1002.24 1001.53 1001.49 1001.98 1002.74 1002.86 1002.84 1002.87 1003.40 1004.53
1003.82 1002.98 1000.56 998.31 998.56 998.01 998.13 997.98 998.69 998.98 998.75 998.61 998.47 998.65 997.28 996.97 996.66 998.32 997.66 998.36 999.82 1000.57 1001.20 1001.92 1002.74 1003.36 1003.95 1004.34 1004.64 1004.86 1004.91 1004.66 1004.02 1003.37 1001.96 1000.69 1000.92 1001.35 1002.18 1002.46 1002.41 1002.47 1003.28 1004.17
1005.14 1004.28 1002.43 999.66 997.86 997.39 997.25 997.60 998.11 998.65 998.62 998.58 998.83 999.09 998.73 998.36 997.75 998.43 999.42 1000.54 1001.69 1003.19 1003.19 1003.56 1004.27 1004.78 1004.95 1005.04 1005.07 1005.29 1005.06 1004.84 1004.34 1003.45 1001.39 1000.19 1000.76 1001.20 1001.91 1002.09 1002.11 1002.24 1003.02 1004.11
1006.29 1005.13 1003.64 1001.24 999.38 997.94 997.75 997.67 997.85 998.37 998.44 999.20 999.19 999.34 999.32 1000.41 1000.77 1000.30 1001.45 1002.53 1003.40 1004.03 1004.38 1005.00 1005.45 1005.77 1006.23 1006.53 1006.33 1006.03 1005.80 1005.09 1004.69 1003.70 1002.17 1000.95 1000.78 1001.17 1001.57 1001.79 1001.79 1002.20 1003.07 1004.03
1006.28 1005.55 1004.96 1003.49 1001.91 1001.25 998.63 997.74 998.03 998.51 998.78 999.26 999.92 1000.40 1000.94 1001.82 1002.51 1003.47 1003.79 1004.10 1004.75 1005.23 1005.81 1006.40 1006.99 1007.55 1007.86 1007.72 1007.43 1007.28 1006.40 1005.76 1005.02 1003.67 1002.04 1001.00 1000.96 1001.13 1001.31 1001.42 1001.70 1002.21 1002.98 1003.79
1006.26 1005.65 1005.22 1003.74 1002.55 1002.49 1001.38 1000.11 999.13 998.84 999.02 999.36 1001.35 1001.74 1002.70 1003.68 1004.34 1005.01 1005.68 1006.13 1006.70 1007.07 1007.79 1008.30 1008.59 1008.71 1008.78 1008.71 1008.49 1008.01 1007.18 1006.27 1005.11 1003.85 1002.23 1000.77 1000.86 1001.05 1001.19 1001.29 1001.60 1002.29 1003.19 1003.74
1006.47 1006.00 1005.11 1003.24 1001.78 1001.42 1002.04 1001.51 1000.93 1000.30 999.91 1000.38 1001.00 1002.26 1004.50 1005.35 1005.85 1006.91 1007.61 1008.00 1008.75 1008.95 1009.55 1010.08 1010.40 1010.44 1010.34 1010.02 1009.38 1008.55 1007.51 1006.27 1005.03 1003.39 1001.87 1000.66 1000.77 1000.90 1000.96 1001.17 1001.68 1002.26 1003.27 1003.74
1006.55 1006.48 1005.30 1003.12 1001.97 1001.51 1001.28 1001.03 1000.59 1000.22 1000.24 1000.89 1001.98 1004.11 1005.05 1006.34 1007.87 1009.18 1009.79 1009.95 1010.04 1010.77 1011.32 1011.71 1011.84 1011.86 1011.60 1011.08 1010.35 1009.16 1007.91 1006.67 1005.28 1003.05 1001.00 1000.54 1000.73 1000.81 1000.92 1001.15 1001.69 1002.38 1003.33 1003.85
1006.50 1006.38 1005.78 1004.44 1003.38 1002.63 1003.03 1002.56 1002.31 1001.85 1002.68 1003.34 1004.11 1005.12 1006.42 1008.04 1009.58 1010.41 1010.49 1010.68 1011.61 1012.31 1012.58 1012.77 1012.78 1012.68 1012.53 1011.78 1010.78 1009.77 1008.58 1007.24 1005.85 1003.88 1002.74 1001.31 1000.75 1000.80 1000.89 1001.36 1001.78 1002.66 1003.46 1004.01
1006.30 1006.53 1006.09 1005.23 1004.48 1003.78 1004.69 1005.02 1005.07 1005.18 1006.24 1006.59 1006.18 1006.78 1007.73 1008.68 1009.38 1010.94 1011.65 1012.25 1012.90 1013.30 1013.59 1013.71 1013.71 1013.88 1013.34 1012.45 1011.35 1010.31 1009.00 1007.77 1006.35 1005.59 1004.32 1003.37 1002.12 1001.05 1001.06 1001.48 1002.05 1002.82 1003.57 1004.29
1006.36 1006.57 1006.80 1006.53 1006.34 1006.25 1007.55 1006.76 1006.46 1006.55 1008.49 1009.52 1008.47 1008.33 1008.47 1009.12 1010.18 1012.19 1012.70 1013.24 1013.70 1014.43 1014.74 1014.73 1014.56 1014.30 1013.68 1012.81 1011.84 1010.84 1009.54 1008.58 1007.61 1006.59 1005.87 1004.99 1003.66 1002.63 1002.05 1002.14 1002.56 1003.18 1003.90 1005.16
1007.37 1007.38 1007.54 1007.59 1007.95 1008.91 1009.83 1008.50 1007.23 1008.30 1011.37 1011.11 1010.62 1010.42 1010.45 1011.07 1012.43 1013.27 1013.70 1014.26 1014.82 1015.44 1015.51 1015.26 1014.65 1014.39 1014.03 1013.32 1012.36 1011.30 1010.47 1010.03 1009.29 1007.75 1007.07 1006.32 1004.97 1004.55 1003.76 1003.65 1003.83 1004.09 1004.95 1006.33
1008.77 1008.86 1009.64 1009.85 1009.88 1011.12 1011.84 1010.12 1010.99 1012.45 1012.41 1012.16 1011.99 1011.57 1011.93 1012.53 1013.23 1013.86 1014.51 1015.16 1015.68 1015.90 1015.80 1015.60 1015.19 1014.83 1014.34 1014.13 1012.99 1011.93 1011.47 1011.41 1010.29 1008.76 1007.98 1007.33 1006.33 1006.38 1005.63 1005.05 1005.25 1005.25 1006.14 1007.44
1009.67 1010.29 1011.06 1012.39 1013.25 1014.07 1014.28 1014.14 1014.08 1013.51 1012.91 1012.70 1012.49 1012.45 1012.62 1013.12 1013.77 1014.53 1015.18 1015.68 1016.24 1016.32 1016.34 1016.21 1015.92 1015.63 1015.39 1014.64 1013.99 1013.25 1013.04 1012.06 1011.17 1010.29 1009.18 1008.77 1008.26 1007.53 1007.06 1006.98 1006.54 1007.07 1008.01 1008.57
1010.65 1010.96 1012.04 1013.16 1014.55 1014.90 1015.45 1015.63 1015.44 1015.14 1014.57 1013.97 1013.63 1013.35 1013.53 1013.89 1014.25 1014.88 1015.55 1015.95 1016.44 1016.54 1016.61 1016.65 1016.65 1016.42 1016.08 1015.55 1014.89 1014.64 1013.93 1013.22 1012.48 1011.49 1010.73 1010.24 1010.23 1009.38 1008.69 1008.27 1007.17 1008.81 1010.07 1009.75
1012.10 1012.31 1013.47 1014.46 1015.24 1015.60 1016.38 1016.88 1016.66 1016.37 1015.99 1015.30 1014.89 1014.90 1014.78 1014.54 1014.92 1015.47 1015.97 1016.24 1016.49 1016.85 1017.18 1017.32 1017.20 1017.04 1016.94 1016.63 1016.31 1015.78 1014.87 1013.96 1013.54 1012.85 1012.08 1011.97 1012.76 1011.47 1011.14 1011.14 1010.81 1011.63 1011.54 1011.66
1014.20 1015.01 1015.30 1016.01 1016.90 1016.83 1017.52 1017.81 1017.64 1017.51 1017.25 1016.66 1016.08 1015.67 1015.93 1015.81 1015.96 1016.13 1016.81 1017.21 1017.51 1017.76 1017.73 1017.75 1017.74 1017.69 1017.72 1017.37 1017.01 1016.46 1015.84 1015.01 1014.35 1014.06 1013.90 1013.58 1013.74 1013.39 1013.48 1013.26 1013.24 1013.61 1013.42 1012.97
Wind_Speed
22 25 29 33 33 31 25 26 27 26 25 25 26 27 24 23 17 17 14 19 12 9 11 8 7 7 4 5 7 5 5 7 8 8 9 9 9 8 7 5 8 9 9 10
17 30 30 34 31 28 30 28 27 19 17 2 5 17 16 14 19 17 15 11 13 11 10 9 10 9 6 3 3 2 2 4 6 8 8 7 9 6 6 4 6 13 14 13
24 25 32 33 31 32 29 27 23 25 6 15 10 15 21 16 16 15 16 18 18 13 12 12 13 10 8 4 2 3 5 6 7 8 6 4 5 3 4 6 8 8 12 11
23 26 34 31 34 31 26 27 26 20 6 5 12 9 18 15 17 17 17 15 9 10 9 9 8 11 8 5 3 4 5 7 6 8 6 12 9 8 8 7 8 7 7 9
8 19 26 28 33 32 23 19 22 10 5 8 13 11 18 20 22 20 27 25 16 10 13 6 9 8 7 6 6 4 2 6 8 6 8 10 10 8 7 8 10 12 9 10
23 28 23 33 25 28 21 4 7 5 7 9 20 16 14 18 26 24 19 9 9 11 9 8 8 6 2 4 6 2 4 8 6 7 6 11 13 11 9 10 11 10 7 8
22 10 15 17 14 22 15 13 5 4 8 13 14 17 17 15 14 20 11 15 16 13 8 6 6 4 8 9 9 7 7 9 11 7 7 7 11 13 13 13 11 12 9 7
15 10 11 17 14 13 16 16 7 7 8 9 19 12 18 23 17 15 12 16 15 11 8 4 9 11 11 12 13 13 14 17 10 15 8 7 6 7 10 13 9 10 10 9
11 1 12 17 7 15 21 20 16 3 7 5 8 18 5 22 8 14 13 16 9 8 9 9 10 11 10 9 10 11 12 16 13 15 16 8 8 10 11 12 6 9 9 9
6 10 20 19 10 14 16 17 13 7 4 3 6 15 4 6 19 17 12 12 11 8 10 7 10 9 6 6 8 11 14 15 15 19 18 9 11 11 13 8 7 9 10 9
14 6 10 13 8 13 9 13 11 11 9 2 1 2 14 6 13 5 8 11 16 16 15 12 10 11 11 10 9 11 12 13 16 16 21 12 10 10 11 8 7 7 9 8
9 6 4 10 13 13 12 14 16 7 10 5 1 3 10 12 12 12 23 15 16 12 12 13 12 11 12 13 13 14 14 14 15 15 17 8 8 9 10 5 7 8 9 8
8 4 6 8 7 14 17 16 12 12 7 5 4 1 12 3 2 18 17 14 13 14 15 14 13 13 14 14 14 15 16 16 16 15 16 4 7 9 8 5 7 8 8 9
6 6 5 3 8 9 9 16 15 11 7 8 5 1 11 13 17 15 15 15 15 14 16 15 13 13 13 14 15 16 17 16 16 15 15 8 9 10 9 8 8 9 7 9
10 7 5 14 12 6 8 9 7 15 12 8 14 5 10 12 16 11 12 13 14 14 14 15 15 15 15 15 15 17 17 17 16 17 15 9 9 10 9 11 10 9 7 8
11 6 15 16 10 14 5 7 11 16 10 11 5 1 13 10 13 13 13 13 12 13 13 15 15 16 16 16 16 17 18 18 16 17 13 7 8 7 9 10 10 10 9 9
8 4 10 4 14 10 3 7 5 7 5 3 6 9 11 15 14 11 9 10 12 13 13 13 13 14 14 14 16 16 17 15 15 16 9 9 9 7 6 9 11 9 9 9
5 8 6 7 8 1 12 22 17 15 20 17 14 14 15 15 13 11 12 13 11 11 11 11 11 12 13 13 15 15 14 14 14 16 15 8 8 7 8 9 10 10 7 6
7 5 4 4 7 4 21 17 10 10 11 17 10 11 11 14 14 13 12 12 9 10 10 9 10 10 11 13 14 14 14 13 14 16 15 14 12 6 8 11 11 9 9 7
8 7 5 9 5 3 11 17 10 8 3 16 12 12 6 5 3 5 10 10 10 10 9 9 9 10 11 14 14 13 15 16 16 15 14 13 12 10 7 6 6 4 10 11
5 4 7 7 5 6 17 18 15 3 6 8 14 12 15 9 6 6 8 10 10 9 10 11 9 9 12 13 13 13 15 16 14 13 12 12 13 12 9 8 7 10 13 12
3 4 4 7 4 1 21 8 8 3 5 8 7 10 10 9 8 8 9 10 10 11 12 13 11 11 12 14 13 14 15 14 13 13 13 14 12 10 10 11 11 12 13 13
4 5 3 4 3 5 8 9 10 10 7 10 9 10 9 9 8 9 8 9 10 10 10 10 10 11 11 13 14 14 11 11 12 13 16 17 15 10 12 13 13 11 10 10
3 11 4 4 5 6 9 8 11 12 12 11 11 10 8 8 8 9 9 9 8 8 10 10 10 10 11 12 14 13 12 9 10 13 15 16 15 16 16 10 13 11 9 10
7 6 6 5 4 2 11 8 9 10 11 10 10 11 12 10 9 9 10 11 11 9 8 9 10 11 12 11 12 12 13 11 10 11 12 14 10 14 17 17 13 12 14 11
6 4 4 3 6 4 5 7 9 9 11 12 10 9 10 11 10 11 10 10 11 11 11 11 12 12 12 12 12 12 12 12 10 11 9 9 9 10 10 12 15 30 26 29
Wind_Direction
276 244 229 231 229 228 236 233 228 230 238 248 224 239 233 224 236 239 226 214 208 221 191 196 173 216 215 95 50 30 119 153 159 171 183 209 207 194 196 198 164 174 200 193
284 245 228 240 240 232 245 239 241 246 249 310 210 287 279 234 237 225 236 216 236 199 221 203 199 129 127 97 61 332 260 188 173 187 198 205 213 185 189 188 202 193 194 189
270 253 230 231 240 234 225 239 238 241 86 14 244 257 276 257 252 250 230 207 205 204 222 225 216 130 119 142 132 246 257 260 208 212 186 157 81 104 177 203 223 208 181 180
238 258 240 219 237 238 232 220 236 242 199 203 242 255 252 266 254 264 273 264 239 205 245 256 155 125 136 164 134 54 318 300 266 197 198 160 174 189 203 200 203 231 183 185
277 281 230 222 220 234 235 236 223 216 253 226 238 256 250 255 264 271 226 239 222 206 219 170 112 123 141 154 136 103 233 276 289 276 194 171 194 204 185 194 189 219 207 193
270 266 269 232 218 219 218 126 135 174 207 239 230 233 263 232 227 236 236 221 155 116 97 87 94 91 90 138 109 86 306 292 259 267 250 180 195 198 201 198 196 198 196 192
315 298 318 282 201 205 141 160 144 181 210 234 207 224 235 264 203 226 235 168 122 111 100 97 105 122 38 19 14 20 347 323 314 242 253 215 185 197 210 224 197 186 184 191
298 300 315 246 213 176 162 177 169 189 206 239 219 231 243 236 256 201 130 110 106 118 109 165 81 56 33 17 4 359 343 320 308 312 255 203 174 197 217 239 201 171 175 187
308 109 280 280 165 162 171 195 206 208 234 253 201 236 342 208 124 103 122 113 121 149 121 73 76 63 42 10 359 344 328 312 308 298 299 203 170 201 236 237 198 169 162 178
345 315 178 274 157 184 195 187 215 245 232 217 243 198 161 226 130 141 182 151 134 118 79 70 76 66 45 12 347 349 328 317 311 303 288 215 190 201 226 242 197 181 164 174
329 300 308 207 130 208 199 207 203 238 262 351 167 271 143 242 120 119 160 94 51 46 54 52 37 22 13 9 349 337 338 326 310 300 289 198 188 197 221 231 195 162 151 150
351 313 286 299 254 219 214 202 210 209 241 231 158 254 24 14 149 153 80 63 64 52 37 34 25 16 360 346 349 338 334 323 315 308 301 166 176 183 219 216 191 140 147 158
346 5 324 297 322 208 216 227 218 227 261 299 293 197 103 110 122 75 75 67 59 42 31 18 10 8 359 341 340 338 328 328 316 310 289 182 177 195 204 202 162 139 152 184
291 285 342 318 288 347 295 208 211 229 245 233 220 220 148 57 61 59 60 51 44 32 18 8 1 354 345 339 341 330 325 321 311 301 281 191 194 208 207 176 159 154 153 181
6 309 356 292 283 350 328 327 305 221 227 252 131 214 37 87 78 61 51 51 38 31 9 358 354 350 343 338 335 328 319 316 314 308 295 196 203 208 201 166 152 162 161 163
338 309 314 297 277 159 200 280 349 317 352 304 148 143 84 125 98 67 47 44 32 24 6 1 349 345 338 339 330 322 319 319 316 298 286 190 190 175 166 158 151 162 158 155
315 313 320 324 359 353 359 2 227 246 121 309 27 109 123 86 78 61 54 41 32 15 5 356 350 343 338 336 327 325 323 322 327 326 263 181 184 177 169 156 153 157 166 156
265 310 295 299 292 58 51 15 13 358 44 32 55 60 88 98 92 68 43 36 27 6 2 355 353 349 340 335 335 331 330 337 352 355 356 342 175 180 168 160 150 159 162 164
217 281 292 312 322 272 34 4 7 20 47 4 32 71 102 120 99 57 39 37 32 14 10 358 360 348 338 344 340 341 347 348 6 356 356 347 348 188 168 164 160 156 156 154
321 230 266 305 310 5 8 343 2 308 77 342 14 29 67 144 43 55 28 28 32 22 8 357 359 359 357 352 347 354 3 2 2 359 349 351 1 11 61 71 108 66 93 88
331 310 269 283 264 112 354 339 309 289 16 352 18 35 38 63 60 56 31 41 32 24 9 4 10 17 5 353 347 7 11 6 349 359 357 1 20 14 34 57 68 98 93 89
74 354 1 318 322 115 357 18 37 343 22 16 21 47 59 65 65 58 46 44 26 18 15 18 16 17 10 1 357 10 14 350 352 10 20 13 26 21 27 58 61 74 91 92
61 44 356 35 43 42 23 30 24 20 38 35 35 42 46 51 56 57 49 45 31 21 18 18 17 17 15 9 8 8 355 355 351 15 32 31 19 23 47 35 59 57 67 83
32 30 43 247 54 48 42 29 21 19 20 21 24 33 45 55 47 55 53 47 50 26 25 15 18 23 20 18 11 3 359 13 9 25 37 35 29 36 44 42 52 50 42 72
357 30 327 103 61 55 69 32 24 30 22 20 41 34 18 41 47 52 45 39 42 45 37 25 20 24 23 21 20 7 4 14 28 32 41 49 37 45 53 49 55 62 55 69
359 14 11 8 344 284 64 37 41 42 26 10 21 44 49 35 38 51 48 45 38 36 31 28 25 27 26 23 20 14 17 17 29 38 33 42 42 48 55 60 65 58 65 68